Weather History for Washington, NC

Change the Weather History Date:

Sunday, January 5, 2014

  Actual Average (KEWN) Record (KEWN)
Temperature  
Mean Temperature 52 °F 44 °F  
Max Temperature 68 °F 54 °F 80 °F (2004)
Min Temperature 37 °F 34 °F 16 °F (1981)
Degree Days  
Heating Degree Days 13 21  
Month to date heating degree days 105  
Since 1 July heating degree days 1099  
Cooling Degree Days 0 0  
Month to date cooling degree days 0  
Year to date cooling degree days 0  
Growing Degree Days 2 (Base 50)    
Moisture  
Dew Point 49 °F    
Average Humidity 84    
Maximum Humidity 86    
Minimum Humidity 76    
Precipitation  
Precipitation 0.08 in 0.13 in 1.65 in (1966)
Month to date precipitation 0.63  
Year to date precipitation 0.63  
Snow  
Snow 0.00 in - - ()
Month to date snowfall  
Since 1 July snowfall  
Snow Depth -    
Sea Level Pressure  
Sea Level Pressure 30.10 in    
Wind  
Wind Speed 3 mph (NNE)    
Max Wind Speed 12 mph    
Max Gust Speed 17 mph    
Visibility 9 miles    
Events      
T = Trace of Precipitation, MM = Missing Value Source: NWS Daily Summary

Daily Weather History Graph

Daily Weather History Graph

Search for Another Location

Airport:

Trip Planner

Search our weather history database for the weather conditions in past years. The results will help you decide how hot, cold, wet, or windy it might be!

Date:

Astronomy

Jan. 05, 2014 Rise Set
Actual Time 7:18 AM EST 5:09 PM EST
Civil Twilight 6:50 AM EST 5:37 PM EST
Nautical Twilight 6:18 AM EST 6:09 PM EST
Astronomical Twilight 5:47 AM EST 6:40 PM EST
Moon 10:09 AM EST (1/5) 10:22 PM EST (1/5)
Length of Visible Light 10h 47m
Length of Day
9h 51m
Waxing Crescent, 24% of the Moon is Illuminated
Jan 5
Waxing Crescent
Jan 7
First Quarter
Jan 15
Full
Jan 24
Last Quarter
Jan 30
New

Hourly Weather History & Observations

Time (EST) Temp. Windchill Dew Point Humidity Pressure Visibility Wind Dir Wind Speed Gust Speed Precip Events Conditions
12:15 AM 37.6 °F 34.0 °F 32.0 °F 80% 30.27 in 10.0 mi East 4.6 mph - N/A   Scattered Clouds
12:35 AM 37.8 °F - 32.5 °F 81% 30.27 in 10.0 mi Calm Calm - N/A   Clear
12:55 AM 37.6 °F - 33.3 °F 84% 30.26 in 10.0 mi Calm Calm - N/A   Clear
1:15 AM 37.6 °F 35.1 °F 33.8 °F 86% 30.27 in 10.0 mi NE 3.5 mph - N/A   Clear
1:35 AM 37.6 °F - 33.6 °F 86% 30.25 in 10.0 mi Calm Calm - N/A   Clear
1:55 AM 37.6 °F - 33.8 °F 86% 30.26 in 10.0 mi Calm Calm - N/A   Clear
2:15 AM 37.6 °F - 33.8 °F 86% 30.26 in 10.0 mi Calm Calm - N/A   Mostly Cloudy
2:35 AM 37.6 °F - 33.8 °F 86% 30.26 in 10.0 mi Calm Calm - N/A   Mostly Cloudy
2:55 AM 37.6 °F - 33.8 °F 86% 30.26 in 10.0 mi Calm Calm - N/A   Mostly Cloudy
3:15 AM 37.6 °F - 33.8 °F 86% 30.25 in 10.0 mi Calm Calm - N/A   Overcast
3:35 AM 37.6 °F - 33.8 °F 86% 30.24 in 10.0 mi Calm Calm - N/A   Overcast
3:55 AM 37.6 °F - 33.8 °F 86% 30.24 in 10.0 mi Calm Calm - N/A   Scattered Clouds
4:15 AM 37.8 °F 35.3 °F 33.8 °F 86% 30.24 in 10.0 mi North 3.5 mph - N/A   Clear
4:35 AM 37.8 °F - 33.8 °F 86% 30.23 in 10.0 mi Calm Calm - N/A   Mostly Cloudy
4:55 AM 38.8 °F 36.5 °F 34.9 °F 86% 30.23 in 10.0 mi NE 3.5 mph - N/A   Mostly Cloudy
5:15 AM 39.2 °F 35.9 °F 35.2 °F 86% 30.23 in 10.0 mi North 4.6 mph - N/A   Mostly Cloudy
5:35 AM 40.1 °F 38.0 °F 36.1 °F 86% 30.23 in 10.0 mi North 3.5 mph - N/A   Overcast
5:55 AM 40.1 °F - 36.1 °F 86% 30.23 in 10.0 mi Calm Calm - N/A   Overcast
6:15 AM 40.1 °F - 36.1 °F 86% 30.24 in 10.0 mi Calm Calm - N/A   Overcast
6:35 AM 40.1 °F - 36.1 °F 86% 30.23 in 10.0 mi Calm Calm - N/A   Mostly Cloudy
6:55 AM 40.1 °F - 36.1 °F 86% 30.24 in 10.0 mi Calm Calm - N/A   Mostly Cloudy
7:15 AM 40.5 °F 37.3 °F 36.5 °F 86% 30.23 in 10.0 mi ENE 4.6 mph - N/A   Overcast
7:35 AM 42.8 °F - 38.5 °F 85% 30.22 in 10.0 mi Calm Calm - N/A   Overcast
7:55 AM 42.8 °F - 38.5 °F 85% 30.22 in 10.0 mi Calm Calm - N/A   Overcast
8:15 AM 42.8 °F - 38.5 °F 85% 30.22 in 10.0 mi Calm Calm - N/A   Overcast
8:35 AM 43.9 °F - 39.7 °F 85% 30.22 in 10.0 mi Calm Calm - N/A   Overcast
8:55 AM 43.9 °F 42.3 °F 39.7 °F 85% 30.21 in 10.0 mi NE 3.5 mph - N/A   Mostly Cloudy
9:15 AM 46.0 °F 43.9 °F 41.9 °F 85% 30.18 in 10.0 mi NE 4.6 mph - N/A   Scattered Clouds
9:35 AM 50.2 °F - 45.9 °F 85% 30.18 in 10.0 mi Calm Calm - N/A   Scattered Clouds
9:55 AM 52.7 °F - 48.4 °F 85% 30.19 in 10.0 mi Calm Calm - N/A   Mostly Cloudy
10:15 AM 54.9 °F - 50.4 °F 85% 30.19 in 10.0 mi East 3.5 mph - N/A   Overcast
10:35 AM 58.1 °F - 53.4 °F 84% 30.17 in 10.0 mi East 3.5 mph - N/A   Mostly Cloudy
10:55 AM 58.1 °F - 52.9 °F 83% 30.16 in 10.0 mi ENE 5.8 mph - N/A   Mostly Cloudy
11:15 AM 60.4 °F - 54.7 °F 81% 30.14 in 10.0 mi ENE 8.1 mph - N/A   Scattered Clouds
11:35 AM 63.7 °F - 57.0 °F 79% 30.13 in 10.0 mi NE 8.1 mph - N/A   Scattered Clouds
11:55 AM 64.4 °F - 57.4 °F 78% 30.12 in 10.0 mi NNE 10.4 mph 16.1 mph N/A   Mostly Cloudy
12:15 PM 66.0 °F - 58.1 °F 76% 30.10 in 10.0 mi NE 10.4 mph - N/A   Mostly Cloudy
12:35 PM 66.0 °F - 58.1 °F 76% 30.09 in 10.0 mi NNE 10.4 mph 16.1 mph N/A   Mostly Cloudy
12:55 PM 65.7 °F - 59.0 °F 79% 30.07 in 10.0 mi NE 9.2 mph - N/A   Mostly Cloudy
1:15 PM 66.7 °F - 59.2 °F 77% 30.06 in 10.0 mi NNE 10.4 mph 16.1 mph N/A   Mostly Cloudy
1:35 PM 66.7 °F - 59.4 °F 77% 30.05 in 10.0 mi NNE 9.2 mph - N/A   Scattered Clouds
1:55 PM 67.1 °F - 59.9 °F 78% 30.03 in 10.0 mi NNE 11.5 mph - N/A   Scattered Clouds
2:15 PM 65.3 °F - 60.1 °F 83% 30.03 in 10.0 mi NNE 11.5 mph 17.3 mph N/A   Mostly Cloudy
2:35 PM 64.4 °F - 59.5 °F 84% 30.03 in 10.0 mi NNE 9.2 mph - N/A   Mostly Cloudy
2:55 PM 63.1 °F - 58.5 °F 85% 30.03 in 5.0 mi NNE 10.4 mph - N/A   Mostly Cloudy
3:15 PM 63.0 °F - 58.3 °F 85% 30.03 in 5.0 mi NE 4.6 mph - 0.01 in   Overcast
3:35 PM 63.0 °F - 58.3 °F 85% 30.02 in 4.0 mi NE 5.8 mph - 0.03 in   Overcast
3:55 PM 63.0 °F - 58.3 °F 85% 30.02 in 4.0 mi NNE 3.5 mph - 0.05 in   Overcast
4:15 PM 63.0 °F - 58.3 °F 85% 30.01 in 7.0 mi NE 3.5 mph - 0.01 in   Overcast
4:35 PM 63.0 °F - 58.3 °F 85% 30.01 in 10.0 mi NNE 5.8 mph - 0.01 in   Overcast
4:55 PM 63.0 °F - 58.3 °F 85% 30.00 in 7.0 mi NNE 3.5 mph - 0.01 in   Overcast
5:15 PM 63.0 °F - 58.3 °F 85% 30.00 in 10.0 mi Calm Calm - N/A   Overcast
5:35 PM 63.0 °F - 58.3 °F 85% 29.98 in 7.0 mi NNE 3.5 mph - N/A   Overcast
5:55 PM 63.0 °F - 58.3 °F 85% 29.98 in 5.0 mi NNE 3.5 mph - N/A   Overcast
6:15 PM 63.0 °F - 58.3 °F 85% 29.98 in 7.0 mi NNE 4.6 mph - N/A   Overcast
6:35 PM 63.0 °F - 58.3 °F 85% 29.97 in 7.0 mi North 5.8 mph - N/A   Overcast
6:55 PM 63.0 °F - 58.3 °F 85% 29.96 in 10.0 mi NNE 6.9 mph - N/A   Overcast
7:15 PM 63.0 °F - 58.3 °F 85% 29.95 in 10.0 mi North 5.8 mph - N/A   Mostly Cloudy
7:35 PM 63.0 °F - 58.3 °F 85% 29.96 in 10.0 mi North 4.6 mph - N/A   Mostly Cloudy
7:55 PM 63.0 °F - 58.3 °F 85% 29.95 in 10.0 mi North 6.9 mph - N/A   Scattered Clouds
8:15 PM 63.0 °F - 58.3 °F 85% 29.95 in 10.0 mi North 5.8 mph - N/A   Scattered Clouds
8:35 PM 63.0 °F - 58.3 °F 85% 29.95 in 10.0 mi North 6.9 mph - N/A   Mostly Cloudy
8:55 PM 63.0 °F - 58.3 °F 85% 29.93 in 10.0 mi NNE 5.8 mph - N/A   Mostly Cloudy
9:15 PM 63.0 °F - 58.3 °F 85% 29.92 in 10.0 mi North 8.1 mph - N/A   Scattered Clouds
9:35 PM 63.0 °F - 58.3 °F 85% 29.92 in 10.0 mi North 4.6 mph - 0.01 in   Scattered Clouds
9:55 PM 63.0 °F - 58.3 °F 85% 29.91 in 10.0 mi North 5.8 mph - 0.01 in   Mostly Cloudy
10:15 PM 63.0 °F - 58.3 °F 85% 29.90 in 10.0 mi North 5.8 mph - N/A   Overcast
10:35 PM 63.0 °F - 58.3 °F 85% 29.90 in 10.0 mi North 3.5 mph - N/A   Overcast
10:55 PM 63.0 °F - 58.3 °F 85% 29.88 in 7.0 mi North 4.6 mph - N/A   Overcast
11:15 PM 63.0 °F - 58.3 °F 85% 29.87 in 7.0 mi North 6.9 mph - 0.01 in   Overcast
11:35 PM 63.0 °F - 58.3 °F 85% 29.85 in 7.0 mi North 5.8 mph - 0.01 in   Overcast
11:55 PM 63.0 °F - 58.3 °F 85% 29.83 in 10.0 mi North 3.5 mph - 0.01 in   Overcast